Weather History for Patuxent River, MD

Change the Weather History Date:

Monday, February 18, 2013

  Actual Average Record
Temperature  
Mean Temperature 32 °F -  
Max Temperature 41 °F 44 °F 57 °F (2014)
Min Temperature 23 °F 26 °F 30 °F (2014)
Degree Days  
Heating Degree Days 33    
Moisture  
Dew Point 11 °F    
Average Humidity 43    
Maximum Humidity 61    
Minimum Humidity 27    
Precipitation  
Precipitation 0.00 in - - ()
Sea Level Pressure  
Sea Level Pressure 30.30 in    
Wind  
Wind Speed 10 mph (WSW)    
Max Wind Speed 15 mph    
Max Gust Speed 29 mph    
Visibility 10 miles    
Events      
Averages and records for this station are not official NWS values.
T = Trace of Precipitation, MM = Missing Value Source: NWS Daily Summary

Daily Weather History Graph

Daily Weather History Graph

Search for Another Location

Airport:

Trip Planner

Search our weather history database for the weather conditions in past years. The results will help you decide how hot, cold, wet, or windy it might be!

Date:

Astronomy

Feb. 18, 2013 Rise Set
Actual Time 6:52 AM EST 5:47 PM EST
Civil Twilight 6:25 AM EST 6:14 PM EST
Nautical Twilight 5:54 AM EST 6:45 PM EST
Astronomical Twilight 5:23 AM EST 7:15 PM EST
Moon 11:34 AM EST (2/18) 1:27 AM EST (2/18)
Length of Visible Light 11h 49m
Length of Day
10h 55m
First Quarter, 58% of the Moon is Illuminated
Feb 18
First Quarter
Feb 25
Full
Mar 4
Last Quarter
Mar 11
New
Mar 19
First Quarter

Hourly Weather History & Observations

Time (EST) Temp. Windchill Dew Point Humidity Pressure Visibility Wind Dir Wind Speed Gust Speed Precip Events Conditions
12:52 AM 26.1 °F 14.5 °F 6.1 °F 43% 30.22 in 10.0 mi West 13.8 mph 28.8 mph N/A   Clear
1:52 AM 26.1 °F 14.0 °F 7.0 °F 44% 30.24 in 10.0 mi West 15.0 mph 24.2 mph N/A   Clear
2:52 AM 25.0 °F 13.6 °F 7.0 °F 46% 30.26 in 10.0 mi West 12.7 mph - N/A   Clear
3:52 AM 24.1 °F 14.4 °F 7.0 °F 48% 30.28 in 10.0 mi West 9.2 mph - N/A   Clear
4:52 AM 24.1 °F 13.7 °F 7.0 °F 48% 30.30 in 10.0 mi West 10.4 mph - N/A   Clear
5:52 AM 24.1 °F 12.0 °F 5.0 °F 44% 30.33 in 10.0 mi West 13.8 mph - N/A   Clear
6:52 AM 23.0 °F 11.7 °F 6.1 °F 48% 30.35 in 10.0 mi West 11.5 mph - N/A   Clear
7:52 AM 25.0 °F 18.1 °F 6.1 °F 45% 30.38 in 10.0 mi WNW 5.8 mph - N/A   Clear
8:52 AM 28.0 °F 17.5 °F 7.0 °F 41% 30.40 in 10.0 mi West 12.7 mph - N/A   Clear
9:52 AM 30.9 °F 21.7 °F 7.0 °F 37% 30.39 in 10.0 mi WNW 11.5 mph - N/A   Clear
10:52 AM 33.1 °F 24.4 °F 9.0 °F 37% 30.39 in 10.0 mi NW 11.5 mph - N/A   Clear
11:52 AM 35.1 °F 31.0 °F 8.1 °F 33% 30.36 in 10.0 mi North 4.6 mph - N/A   Clear
12:52 PM 37.0 °F 32.4 °F 9.0 °F 31% 30.34 in 10.0 mi NW 5.8 mph - N/A   Clear
1:52 PM 39.0 °F 34.0 °F 10.9 °F 32% 30.32 in 10.0 mi SSW 6.9 mph - N/A   Clear
2:52 PM 39.9 °F 33.9 °F 10.0 °F 29% 30.30 in 10.0 mi SSW 9.2 mph 16.1 mph N/A   Clear
3:52 PM 41.0 °F 35.2 °F 10.0 °F 28% 30.28 in 10.0 mi SW 9.2 mph - N/A   Clear
4:52 PM 41.0 °F 37.1 °F 9.0 °F 27% 30.27 in 10.0 mi SE 5.8 mph - N/A   Clear
5:52 PM 35.1 °F 29.3 °F 21.0 °F 57% 30.28 in 10.0 mi SE 6.9 mph - N/A   Clear
6:52 PM 34.0 °F 29.8 °F 21.9 °F 61% 30.29 in 10.0 mi SE 4.6 mph - N/A   Clear
7:52 PM 34.0 °F 28.8 °F 21.0 °F 59% 30.27 in 10.0 mi SSE 5.8 mph - N/A   Clear
8:52 PM 35.1 °F 31.0 °F 19.0 °F 52% 30.26 in 10.0 mi SE 4.6 mph - N/A   Clear
9:52 PM 36.0 °F 32.1 °F 19.0 °F 50% 30.24 in 10.0 mi SE 4.6 mph - N/A   Clear
10:52 PM 37.9 °F 32.7 °F 18.0 °F 45% 30.23 in 10.0 mi SSE 6.9 mph - N/A   Clear
11:52 PM 37.0 °F 31.6 °F 19.0 °F 48% 30.22 in 10.0 mi SSE 6.9 mph - N/A   Clear